Theta_e
287 288 288 289 289 290 290 291 292 293 294 295 296 297 299 301 303 305 307 308 310 312 315 317 318 318 318 319 319 320 320 320 320 319 319 319 319 320 321 322 321 322 323 323 323 323 323 324 324 324 325 324 324 324 324 325 325 324 323 323 323 324 323 323 323 323 323 322 321 322 322 321 321 320
287 287 287 287 288 288 288 289 289 290 291 292 294 295 296 298 300 302 303 304 307 309 311 312 314 314 314 315 316 317 318 319 319 319 319 319 319 319 320 320 320 321 322 322 322 322 322 323 323 323 324 324 324 324 324 324 324 324 324 324 324 323 323 323 323 323 323 323 323 323 323 322 322 321
287 287 286 287 287 287 287 287 287 288 289 290 292 295 296 297 298 299 300 301 302 304 305 305 306 307 308 310 311 312 314 316 318 318 319 319 319 319 319 319 320 321 321 321 322 322 322 322 322 322 322 323 324 324 324 324 324 324 324 324 324 324 324 324 324 324 325 325 325 325 324 323 322 322
286 286 286 286 286 286 286 286 286 287 287 289 291 293 293 293 294 295 297 297 297 298 299 299 300 300 301 303 305 307 310 311 313 315 316 317 317 318 318 318 319 319 320 320 322 322 322 321 321 321 321 321 322 323 322 323 323 323 323 323 323 324 325 324 325 325 325 324 324 324 324 324 323 322
286 286 286 286 286 286 286 286 286 286 286 288 289 289 289 289 290 291 293 294 294 294 295 295 296 296 297 299 300 302 304 306 308 309 310 311 312 314 315 316 317 318 318 319 320 321 321 320 320 320 320 320 320 321 320 320 321 321 320 320 320 320 321 322 322 322 322 321 321 321 321 322 322 322
285 285 285 285 285 285 285 285 286 285 285 286 287 286 287 287 289 290 291 292 292 292 292 292 293 293 294 295 296 298 299 300 301 303 304 307 309 310 311 312 313 314 316 317 318 318 318 318 319 319 319 320 320 319 318 318 318 319 319 318 317 317 318 319 319 318 318 317 317 317 317 319 320 321
284 284 284 284 285 285 285 285 285 285 285 285 285 285 286 287 288 288 289 289 289 289 289 290 291 291 292 293 294 294 295 296 297 299 301 304 305 307 308 309 310 311 312 313 314 316 316 317 317 318 319 319 319 317 316 315 316 317 318 318 317 317 316 316 317 317 316 316 315 315 316 317 318 319
283 283 284 284 284 284 284 284 284 284 284 284 285 286 286 286 286 286 286 287 287 288 288 289 290 291 291 292 292 293 293 294 295 296 297 299 300 302 304 305 307 308 309 310 311 312 313 314 316 316 317 316 315 315 313 313 314 316 317 317 316 316 316 315 315 316 316 315 315 314 315 315 316 317
282 283 283 283 283 283 283 284 284 284 284 284 285 285 285 284 285 285 285 285 285 286 287 287 288 289 290 290 291 291 292 293 293 294 294 296 297 299 301 302 304 306 307 309 309 310 310 311 312 312 313 313 312 312 312 313 315 316 317 316 315 315 315 314 314 314 315 315 314 313 313 314 315 315
282 282 283 283 283 284 284 284 285 284 284 284 285 284 283 284 284 285 284 284 284 285 285 286 287 288 288 289 289 289 290 292 293 294 294 294 295 296 297 298 300 301 304 306 307 308 309 310 310 310 310 311 311 311 312 313 314 315 316 316 316 316 315 315 314 314 315 315 314 313 313 313 313 313
282 282 283 283 283 283 283 283 283 283 284 285 284 283 283 283 284 283 283 283 283 284 285 285 286 286 287 287 287 288 289 291 292 293 294 294 293 293 293 294 296 297 299 301 302 304 305 307 308 309 310 310 311 311 311 312 312 313 314 315 316 316 316 315 314 313 315 315 315 314 313 312 312 312
282 282 282 282 281 281 281 281 281 282 283 283 283 283 283 282 282 282 282 282 283 283 284 285 285 285 286 286 286 287 288 290 290 290 291 292 292 292 292 293 294 295 296 298 299 300 302 303 305 307 309 310 310 311 311 311 312 312 313 314 315 316 316 315 313 313 315 316 315 314 312 310 312 312
281 281 280 280 279 279 279 279 280 280 281 281 281 281 281 281 281 282 282 282 282 283 283 284 284 285 285 286 286 287 288 288 289 288 289 290 291 291 292 292 293 294 295 296 297 298 300 302 304 305 307 309 310 310 311 311 312 312 313 313 314 315 315 314 313 315 316 316 315 314 310 308 311 313
280 279 279 278 278 278 278 278 279 279 279 280 280 280 281 281 281 281 282 282 282 282 282 282 283 284 285 285 286 286 287 287 287 288 288 289 289 290 290 291 291 292 294 295 297 298 299 300 302 303 305 307 308 309 310 311 312 313 313 314 314 314 314 314 314 315 315 315 314 311 308 308 311 312
279 278 277 277 277 277 277 277 278 278 278 278 279 280 280 280 281 281 282 282 282 282 281 281 282 283 284 284 285 286 287 287 287 287 288 288 288 288 289 290 291 292 293 295 296 297 297 298 299 300 301 303 305 306 307 309 310 311 311 312 312 312 312 312 312 312 311 311 309 307 306 307 310 310
278 277 276 276 276 276 277 277 277 277 278 278 279 279 280 280 280 280 281 281 281 280 280 281 282 282 283 283 284 285 286 286 286 286 286 287 287 288 289 289 290 291 291 292 294 294 294 296 297 298 299 300 301 302 304 305 306 307 308 308 308 308 308 307 307 307 307 307 306 307 307 308 309 309
276 276 275 275 275 276 276 276 276 277 277 278 278 278 278 278 278 279 279 279 279 279 280 280 281 282 282 282 283 283 284 284 285 285 286 286 287 287 288 288 288 288 288 290 291 292 292 293 295 296 297 298 299 300 301 302 303 304 304 305 305 304 304 304 304 304 304 304 304 305 306 307 307 307
275 275 275 275 275 276 276 276 276 276 277 277 277 278 278 277 278 278 278 278 278 279 279 280 280 281 281 282 282 282 283 283 283 284 284 285 285 286 286 286 286 286 287 288 290 291 291 292 293 295 296 297 297 298 299 300 301 301 302 302 302 302 302 302 302 301 301 301 301 301 301 302 303 304
275 274 274 275 275 275 275 275 276 276 276 277 277 277 277 277 277 277 278 278 278 279 279 279 280 280 281 281 281 282 282 282 283 283 284 284 284 285 285 285 285 286 286 287 289 291 292 292 293 294 295 296 296 297 297 298 298 299 299 300 300 300 300 300 300 299 299 299 300 300 301 302 302 303
274 274 274 274 275 275 275 275 275 276 276 277 277 277 277 277 277 277 277 277 278 278 279 279 280 280 280 280 281 281 281 282 282 282 283 283 284 284 285 285 285 286 286 287 288 291 292 292 293 294 295 296 296 296 297 297 297 297 297 297 298 298 298 298 298 298 298 299 299 300 300 301 301 301
273 273 274 274 274 274 274 274 275 276 276 276 277 277 276 276 276 276 277 277 277 278 278 278 278 278 278 279 279 279 279 280 280 281 281 282 282 283 284 284 285 285 286 286 287 289 290 291 293 294 295 295 296 296 296 296 297 297 296 296 296 296 296 296 296 297 298 298 299 299 299 299 300 300
273 273 273 274 274 274 274 274 275 275 276 276 276 276 275 275 276 276 276 276 276 276 276 276 276 276 276 276 276 277 278 278 279 280 280 281 282 283 283 284 284 285 285 286 286 287 288 289 290 292 293 295 295 296 296 296 296 296 296 295 295 295 295 296 296 297 298 298 298 298 298 298 298 299
272 273 273 274 274 274 273 274 274 275 276 276 275 274 275 275 275 275 275 275 274 274 274 273 273 273 274 274 275 276 277 278 279 279 280 281 281 282 283 283 284 284 285 286 286 287 288 289 290 291 292 293 294 294 295 295 295 295 295 295 295 295 296 296 297 297 297 297 297 297 297 297 297 297
272 273 273 273 273 273 273 273 274 275 275 275 274 273 274 274 274 274 274 273 272 272 271 271 272 272 273 274 274 276 277 277 278 278 278 278 279 280 280 281 282 283 284 285 286 287 287 288 289 290 291 292 293 293 294 294 295 295 295 295 295 295 295 295 296 296 296 296 296 296 296 296 296 296
272 273 273 273 272 272 273 273 274 275 274 273 272 272 273 273 273 273 271 270 269 269 270 270 271 271 272 273 274 275 275 275 275 275 275 276 276 277 278 279 281 282 282 283 284 285 286 287 288 289 290 291 292 292 293 294 294 294 294 295 294 294 294 295 295 295 295 295 294 294 294 294 294 294
272 272 272 272 271 272 273 274 274 274 273 272 271 271 272 272 272 270 268 267 267 268 268 269 269 270 271 272 273 273 273 272 273 273 274 274 275 275 276 278 279 281 282 282 283 284 285 286 287 288 289 290 290 291 292 292 293 293 294 294 294 294 294 294 294 293 293 292 292 291 291 291 291 291
272 272 272 271 272 272 273 273 273 272 271 270 270 270 271 270 269 267 266 265 266 267 267 268 269 270 270 271 271 271 271 271 271 271 272 273 274 274 275 276 277 278 279 280 282 283 284 285 286 287 288 289 289 290 290 291 292 292 293 293 294 294 294 293 292 292 291 291 290 289 289 289 289 289
271 271 271 272 272 272 271 271 270 270 269 269 269 269 269 268 266 265 264 265 265 266 267 267 268 269 269 269 269 269 270 270 270 270 271 272 273 273 274 274 275 276 277 279 281 282 284 285 286 286 287 287 288 288 289 290 290 291 292 292 292 292 292 291 291 290 290 289 289 288 288 288 287 287
271 271 271 271 271 270 269 269 268 268 267 267 267 267 266 265 264 263 264 264 265 265 266 267 267 267 268 268 268 268 268 268 268 269 270 271 271 271 272 273 274 275 276 278 280 282 283 284 284 285 286 287 287 288 288 288 289 289 290 290 290 291 291 290 290 289 289 288 287 287 287 286 286 286
271 271 270 269 269 268 267 267 266 266 265 265 265 264 264 263 263 263 263 264 264 265 265 265 266 266 267 267 267 267 267 267 268 268 269 270 270 270 271 272 273 274 275 277 279 281 282 283 283 284 285 286 287 287 288 288 288 288 289 289 289 289 289 288 288 287 287 287 286 286 286 285 285 284
270 269 268 267 267 266 266 266 266 265 264 263 263 263 262 262 262 262 263 263 264 264 264 265 265 265 266 266 267 266 266 266 267 267 268 268 269 269 270 271 272 273 275 276 278 280 281 281 281 282 283 285 286 287 287 287 287 287 288 288 288 288 287 287 286 286 286 285 285 285 284 284 284 283
268 267 266 266 266 265 265 264 264 263 263 262 262 262 262 262 262 262 262 262 263 263 263 264 264 265 266 266 266 266 266 266 266 266 267 267 268 268 269 270 272 273 274 275 276 278 278 279 279 279 280 282 283 284 285 285 285 285 286 286 286 286 286 285 285 285 284 284 283 283 283 283 282 282
266 265 265 264 263 263 262 262 261 261 261 261 261 261 261 261 261 261 261 262 262 262 263 263 264 265 266 266 266 265 265 265 265 266 266 266 267 267 268 270 271 272 273 274 275 275 276 277 277 277 278 279 281 282 282 283 283 284 284 284 284 284 284 284 284 283 283 282 282 281 281 282 282 282
264 263 262 261 261 261 261 261 260 260 260 260 260 260 260 260 260 260 261 261 261 262 262 262 263 264 265 265 265 265 265 265 265 265 265 265 266 267 268 269 270 271 272 272 273 274 275 275 276 276 277 278 279 281 281 282 282 283 283 282 282 282 282 282 282 281 281 281 281 279 279 280 281 282
262 261 260 260 260 260 260 260 260 260 260 259 259 260 260 260 260 260 260 260 261 261 261 262 263 264 265 265 265 265 264 264 264 264 264 265 265 266 267 268 269 270 271 271 272 272 273 274 275 276 277 278 278 280 281 281 280 281 281 280 280 280 280 280 280 280 280 280 279 278 278 279 280 282
260 260 259 259 259 259 260 260 259 259 259 259 259 259 259 259 259 259 260 260 260 260 261 262 263 264 264 264 265 264 264 263 264 264 264 264 265 266 266 267 268 269 270 270 271 271 272 274 275 276 276 276 277 278 279 280 279 279 279 278 278 278 279 279 279 279 279 279 278 277 277 277 279 281
259 259 259 259 259 259 259 259 259 259 258 258 258 258 258 258 259 259 259 259 259 259 260 261 263 263 263 264 264 263 263 263 263 263 264 264 265 265 266 267 268 268 269 269 270 271 272 273 274 274 274 275 275 275 277 278 278 277 277 277 277 277 278 278 277 277 278 278 277 277 277 277 278 280
258 258 258 258 258 258 258 258 258 258 258 258 258 258 258 258 258 258 258 258 259 259 260 261 261 261 262 263 263 263 262 262 262 263 263 264 264 265 266 267 267 268 268 269 270 270 271 272 273 274 274 273 273 273 275 275 275 275 276 276 276 276 277 277 276 276 277 277 277 277 277 277 278 280
258 258 258 258 258 258 258 258 258 257 257 257 257 257 257 257 257 258 258 258 258 259 259 260 260 261 262 263 263 262 261 262 262 262 263 263 264 265 266 266 267 268 268 269 269 270 271 271 272 273 273 273 273 273 273 274 273 274 275 275 276 276 276 277 277 277 277 277 277 277 277 278 278 279
258 258 258 257 257 257 257 257 257 257 257 257 256 256 256 257 257 257 257 257 258 258 258 259 259 260 262 262 262 261 261 261 261 262 263 263 264 265 265 266 267 267 268 269 269 270 270 271 271 272 272 272 272 272 273 273 273 273 274 275 276 276 276 277 277 277 277 277 277 277 277 278 279 279
257 257 257 257 257 257 257 257 257 256 256 256 256 256 256 256 256 256 257 257 257 257 257 258 258 260 261 262 261 261 261 261 261 262 262 263 264 264 265 266 266 267 268 268 269 270 270 270 270 271 271 272 272 272 272 273 273 274 274 275 276 276 276 277 277 277 278 278 277 277 277 277 278 279
257 257 257 257 256 256 256 256 256 256 256 256 255 255 255 255 256 256 256 256 256 257 257 257 258 260 261 261 260 260 261 261 261 261 262 263 263 264 264 265 266 267 268 268 269 269 269 269 270 270 271 271 272 272 272 273 273 274 275 275 276 276 276 277 277 278 278 278 278 278 277 278 278 278
256 256 256 256 256 256 256 256 256 255 255 255 255 255 255 255 255 255 255 256 256 256 257 257 258 259 260 260 260 260 260 260 261 261 262 262 263 264 264 265 266 267 267 268 268 268 268 269 269 270 271 271 272 273 273 273 274 274 275 275 275 276 276 276 277 278 278 278 278 279 278 278 278 279
256 256 256 255 255 255 255 255 255 255 255 254 254 254 254 254 254 255 255 255 255 256 256 257 257 258 259 259 259 260 260 260 261 261 261 262 262 263 264 265 266 267 267 268 268 268 268 268 269 270 270 271 272 273 273 274 274 274 274 274 274 274 275 276 277 277 278 278 279 279 279 279 279 279
255 255 255 255 255 255 255 255 254 254 254 254 254 254 253 254 254 254 254 255 255 256 256 256 257 257 258 259 259 260 260 260 260 260 261 261 262 263 264 265 266 267 267 267 267 268 268 268 269 269 270 271 272 273 273 273 273 274 273 273 273 274 274 275 275 276 276 277 278 279 279 280 279 279
Wind_Speed
26 23 24 25 23 23 24 24 23 23 24 23 21 20 17 14 11 9 10 9 9 16 20 20 22 25 28 32 32 31 30 30 29 29 30 30 30 30 30 30 30 29 30 30 31 32 32 32 32 31 30 30 30 29 28 28 29 29 29 28 27 27 28 28 29 29 30 29 28 28 28 26 23 21
23 23 24 24 23 24 24 25 25 25 25 25 22 20 19 17 13 10 10 11 12 15 19 21 21 24 28 30 33 34 32 32 32 31 33 34 32 31 31 31 32 32 32 32 33 34 33 32 32 32 31 30 29 29 28 28 28 28 27 27 27 28 28 29 29 30 30 30 30 29 28 26 24 23
22 23 24 24 23 24 24 24 25 25 26 25 24 22 20 18 16 15 13 11 14 17 19 24 27 26 28 30 32 34 33 31 31 32 33 33 33 32 31 31 32 33 34 35 35 33 31 30 32 33 33 31 30 29 29 28 27 26 27 27 27 28 29 29 30 30 30 30 30 30 29 28 27 26
22 22 23 23 23 24 24 24 24 24 25 25 24 21 21 20 20 21 17 11 17 22 20 23 29 28 30 34 33 34 36 33 31 31 32 32 33 33 32 33 33 34 34 34 33 32 32 33 34 34 34 33 32 31 30 29 28 28 28 28 28 28 29 29 30 30 31 30 30 30 30 30 30 28
22 22 23 23 23 23 23 24 24 23 24 24 23 21 22 23 21 21 20 15 16 24 23 22 26 26 26 31 33 33 36 37 35 34 35 35 34 33 33 33 33 34 34 34 34 34 34 35 34 33 34 34 33 32 31 32 32 31 31 31 30 30 30 31 31 31 31 31 31 30 30 30 30 30
23 23 23 24 24 23 23 23 23 22 23 23 23 23 22 22 20 19 20 19 16 22 28 27 27 27 24 26 30 31 33 38 41 41 40 38 35 34 34 34 34 34 33 33 33 34 35 35 35 34 34 34 33 32 32 33 34 34 33 33 32 31 31 31 30 30 29 30 30 30 30 30 30 31
24 24 24 25 24 24 24 24 22 22 23 23 24 25 22 20 22 21 20 23 21 23 30 30 28 30 28 26 28 32 33 35 38 40 40 39 37 35 34 35 37 37 36 35 35 35 35 36 36 34 33 33 33 33 35 35 35 35 34 34 33 32 31 30 30 29 28 27 28 28 29 29 29 30
25 25 25 25 25 25 25 24 23 22 24 25 25 24 21 21 24 24 22 23 24 25 28 30 27 27 29 28 28 31 31 31 34 37 38 39 41 40 37 36 37 38 37 37 38 38 37 36 35 35 35 35 36 36 36 35 34 35 35 34 34 32 31 31 30 29 28 26 25 25 26 26 27 27
25 25 26 26 26 26 26 26 24 23 25 27 23 20 21 24 24 24 23 24 26 27 28 30 30 28 28 30 29 28 30 34 37 37 37 37 37 39 40 37 34 34 34 34 35 37 38 37 38 39 39 40 40 39 36 35 34 34 35 35 34 33 33 32 32 31 29 27 25 24 24 24 24 24
25 26 26 27 27 26 27 27 26 27 29 26 22 20 23 25 24 24 26 27 26 27 28 29 31 30 29 30 31 30 29 32 33 34 35 36 35 35 37 39 38 34 32 31 32 33 35 37 38 39 40 40 39 38 36 35 35 35 36 36 34 34 33 33 33 33 31 28 26 25 24 23 23 23
26 26 25 25 25 25 27 28 28 31 31 26 22 22 23 24 25 26 29 29 26 25 26 27 29 30 31 31 31 31 29 27 28 29 29 32 38 40 38 40 43 41 37 35 35 35 36 37 38 38 39 39 39 38 37 35 35 35 34 34 34 35 34 33 33 34 33 30 28 27 26 24 24 23
24 23 23 24 26 27 28 30 30 30 29 27 25 25 24 25 28 28 28 27 25 23 24 24 26 29 31 31 30 29 26 21 22 27 27 27 35 42 41 40 41 41 39 39 39 39 38 37 38 38 38 40 40 39 38 37 36 35 34 33 34 33 33 32 33 34 33 31 29 28 27 25 25 25
22 24 25 27 29 31 31 31 30 29 28 27 27 27 27 27 28 27 26 25 24 23 22 22 24 24 24 25 25 23 22 20 21 28 30 28 30 36 38 40 40 38 36 37 39 40 38 36 36 38 38 39 39 38 38 37 36 35 33 32 32 32 32 33 33 32 32 31 30 29 28 27 26 26
23 25 27 29 31 31 31 29 29 29 29 28 27 27 27 27 26 27 27 25 23 23 22 23 24 22 21 22 23 22 26 28 26 26 26 26 29 32 30 31 38 37 32 32 35 38 39 36 34 36 36 36 34 32 32 33 32 31 30 30 30 30 30 30 29 29 29 29 29 29 29 29 28 27
24 25 28 31 32 30 28 28 27 28 28 27 27 27 26 26 26 26 27 26 25 24 24 24 25 23 23 26 26 24 26 28 26 25 26 26 27 26 19 17 26 30 27 28 32 37 41 38 35 37 38 36 33 29 27 27 25 24 24 24 25 25 25 25 25 25 26 27 28 28 29 30 31 30
24 28 30 31 29 26 25 25 25 26 26 26 26 26 26 26 26 26 27 27 27 26 26 27 27 25 26 27 27 26 26 29 31 30 30 27 24 22 19 17 22 31 33 31 30 36 42 38 32 35 39 39 36 34 31 29 26 24 23 22 22 22 22 23 23 24 26 27 28 28 29 30 32 32
24 28 29 28 25 23 23 24 24 25 25 26 26 26 27 27 27 27 28 28 28 28 28 28 28 27 28 29 30 31 31 32 34 31 28 27 24 24 24 24 30 38 40 35 29 32 42 42 33 32 38 40 39 37 36 35 32 30 28 27 26 26 26 26 27 28 29 30 31 32 32 32 33 33
25 26 26 25 24 23 24 24 24 25 26 27 28 27 27 27 28 28 28 28 28 28 27 27 30 32 33 33 34 36 37 37 37 35 32 30 29 30 33 36 41 44 43 38 28 24 35 43 36 31 36 40 40 39 38 39 37 34 34 34 33 32 32 32 33 34 34 34 34 33 32 32 31 32
25 25 25 23 24 25 25 23 24 26 28 28 28 29 28 28 28 27 27 27 27 28 28 30 33 35 36 36 37 38 40 39 38 37 36 36 36 37 38 38 40 41 39 37 27 19 28 38 35 31 34 38 40 39 39 42 42 39 38 39 39 38 37 38 38 37 34 32 30 29 28 28 28 29
25 25 24 23 24 25 24 24 26 28 29 29 29 29 29 29 29 28 27 27 27 28 29 31 33 35 36 37 37 37 37 37 37 39 38 37 35 32 28 26 29 31 31 31 27 22 25 33 33 30 32 35 39 41 41 42 42 40 38 39 40 39 38 37 36 32 28 26 26 26 26 26 26 26
25 25 24 24 25 25 24 26 28 29 30 30 28 28 29 30 30 28 27 26 26 28 29 31 34 35 37 38 38 39 39 38 38 37 33 31 30 25 17 16 21 26 27 28 29 25 25 30 32 30 29 32 36 39 40 41 40 37 36 37 38 37 36 33 30 27 25 25 24 24 22 21 21 22
26 26 26 24 23 24 25 28 30 31 30 29 27 28 30 30 29 28 27 27 29 30 32 33 34 35 36 37 37 37 36 35 35 32 30 31 30 24 16 15 20 25 27 29 29 24 24 31 34 30 26 27 32 37 37 37 38 37 37 38 39 36 32 29 27 24 23 22 21 20 19 19 19 20
27 26 26 24 22 24 28 30 31 31 29 28 28 29 29 27 27 28 29 29 30 32 33 34 34 35 33 32 31 32 32 31 30 29 30 31 29 23 20 21 19 15 18 24 25 21 21 26 30 27 18 14 20 30 33 32 35 36 36 36 34 28 24 22 21 20 19 19 19 19 18 18 19 20
29 27 26 25 24 26 29 32 33 31 28 28 29 28 26 25 28 31 31 30 29 30 31 31 30 29 29 28 28 28 28 28 28 30 31 30 27 24 24 24 19 13 17 27 29 25 25 26 27 28 24 14 13 21 26 26 26 24 22 22 22 18 17 17 17 18 18 19 19 19 20 20 20 21
27 27 28 27 27 29 32 34 32 29 28 29 28 26 24 27 30 30 29 29 28 26 26 26 26 25 26 26 25 24 27 31 34 36 35 33 31 29 27 26 23 20 24 33 34 31 29 28 26 27 27 20 15 17 20 19 19 18 16 17 19 18 18 18 19 20 20 20 21 21 22 23 23 24
27 28 28 28 30 33 33 31 29 28 30 30 27 25 26 28 29 27 25 25 26 25 24 24 25 24 23 24 23 24 28 31 31 31 32 31 32 32 31 31 29 26 29 35 38 36 32 29 27 25 22 18 16 18 17 15 19 22 20 20 20 20 20 20 20 20 19 19 20 21 22 23 23 23
29 28 28 30 33 32 29 27 28 30 30 27 25 26 27 27 25 24 23 23 24 24 23 23 22 22 22 23 24 25 27 29 30 31 32 32 32 32 33 34 35 34 35 37 38 37 34 30 28 28 25 18 13 12 12 12 15 18 19 21 21 21 21 21 19 18 18 19 20 20 20 21 22 24
29 29 31 32 30 27 26 27 30 32 30 25 23 25 25 24 23 23 23 23 23 23 22 21 21 21 21 22 24 26 28 31 32 32 32 31 32 33 34 36 36 35 35 35 35 34 34 32 30 29 29 24 15 10 9 11 14 14 15 18 19 20 21 18 17 17 17 17 18 18 20 24 26 26
30 31 31 27 24 25 29 31 32 33 29 23 21 23 24 24 24 24 23 23 22 20 20 21 21 21 22 23 25 27 30 31 31 31 32 33 34 34 34 34 35 34 32 32 31 30 30 30 30 30 30 28 22 16 13 13 16 16 14 13 14 16 18 17 16 16 16 15 16 19 21 25 26 26
31 29 24 22 24 28 31 31 30 29 26 22 22 24 24 25 25 24 23 22 21 20 21 22 22 23 24 24 25 28 30 29 29 29 31 34 34 33 32 32 33 32 29 27 27 27 27 27 28 29 31 30 27 23 20 16 16 18 19 18 15 13 14 16 15 13 14 14 16 19 21 24 26 26
25 21 20 25 30 33 33 31 29 27 25 25 25 26 26 26 25 24 23 21 20 21 24 25 25 26 26 25 26 29 30 29 28 28 29 32 33 31 29 29 29 30 29 26 25 25 24 25 26 27 29 29 25 23 22 18 16 15 16 18 18 12 10 13 14 13 13 14 16 19 22 25 26 24
21 22 28 32 34 34 33 30 28 26 25 26 26 27 27 27 27 26 23 21 22 24 25 26 27 28 27 26 27 29 29 27 28 29 29 30 31 30 28 26 24 25 27 26 25 26 27 27 27 28 28 26 22 19 18 16 14 13 10 11 15 14 12 13 14 13 12 13 16 19 21 23 23 21
24 29 32 32 30 29 27 25 24 24 24 25 25 26 26 27 28 27 25 24 25 25 25 25 27 27 26 27 28 28 28 27 28 29 29 29 30 29 26 23 22 22 24 25 26 29 30 31 31 30 28 26 23 21 18 13 13 14 12 11 13 14 13 13 13 12 11 12 15 17 18 21 21 20
27 29 28 26 24 23 22 22 22 22 23 24 25 25 25 26 27 26 25 25 26 26 25 26 26 25 25 26 26 26 27 28 28 27 29 29 29 27 24 22 22 22 22 23 25 28 30 33 34 32 28 25 23 21 18 16 15 14 12 12 13 13 12 11 11 12 12 13 13 13 15 21 22 19
25 25 24 23 22 21 21 21 21 22 23 24 24 24 25 25 25 25 26 26 26 27 28 27 24 22 24 25 24 25 28 28 27 28 30 29 27 25 23 22 22 22 22 23 25 28 30 30 29 26 21 18 17 15 14 14 16 14 10 10 12 11 11 10 10 11 12 12 13 11 11 17 22 19
23 22 21 21 21 21 21 21 21 22 23 23 24 25 24 24 25 25 26 26 27 28 28 25 23 23 25 25 23 25 28 29 28 29 29 28 26 25 24 22 22 23 24 25 27 28 28 27 23 16 11 9 9 8 6 6 8 9 8 8 8 8 8 7 8 10 11 12 13 13 11 14 19 17
22 21 21 21 21 21 21 22 22 22 23 24 25 25 24 25 26 27 26 27 28 28 26 24 23 25 26 24 22 25 29 30 29 28 27 26 26 24 23 22 23 24 24 26 28 28 26 23 20 14 8 6 6 7 7 6 7 7 5 4 5 5 5 7 8 10 12 12 14 15 15 17 20 16
21 21 21 21 21 22 23 23 23 23 23 24 25 26 26 27 27 27 28 28 28 27 25 25 26 27 26 23 22 25 29 30 28 27 26 26 25 24 23 23 23 24 24 25 26 26 24 21 18 14 8 5 5 7 7 6 9 11 9 6 8 9 8 8 9 11 12 12 13 15 16 19 20 15
21 21 22 22 22 23 24 24 24 23 24 25 26 26 27 28 28 28 29 28 27 25 25 26 27 27 25 22 23 27 30 29 26 25 26 26 25 25 24 22 21 22 22 21 22 24 23 21 19 16 13 9 8 11 12 9 13 20 20 16 15 15 12 9 10 12 13 13 13 14 15 17 17 14
22 22 22 23 24 24 24 24 25 25 24 25 26 27 27 27 28 28 28 27 25 25 27 28 28 26 24 22 24 28 29 28 26 26 26 26 24 24 24 23 22 22 20 18 18 21 22 22 22 22 22 21 21 23 22 19 18 23 24 20 17 16 13 10 9 10 11 11 10 11 12 13 11 8
24 23 24 24 25 25 25 25 26 26 26 27 27 27 27 27 27 27 25 25 25 27 28 29 29 26 23 23 26 28 27 27 28 27 26 26 25 25 25 24 23 22 18 14 14 18 23 27 29 28 27 28 26 22 16 12 10 12 16 15 11 13 14 10 6 7 9 10 10 10 11 10 8 5
24 24 25 26 25 25 26 26 26 26 27 27 28 28 28 28 27 26 25 25 26 27 27 28 28 26 24 24 27 28 26 27 28 28 27 27 26 26 25 23 22 21 18 15 17 23 29 32 33 30 26 24 20 13 7 5 6 7 10 12 10 11 12 10 6 3 5 6 7 8 8 6 5 3
24 25 26 26 26 26 26 26 27 27 27 28 28 28 27 27 27 26 26 27 28 27 27 27 25 24 24 26 28 27 26 27 28 28 27 27 25 24 24 24 24 24 22 21 25 30 31 31 31 29 25 21 16 10 6 6 8 8 9 11 11 10 10 9 7 4 2 2 4 6 7 6 4 2
25 26 26 26 27 27 26 26 26 27 27 28 28 28 26 26 27 27 27 27 27 27 26 26 25 25 26 27 28 27 26 26 26 27 27 27 26 25 24 25 25 24 24 25 27 29 29 28 29 27 22 19 16 11 8 7 8 8 9 9 8 8 8 7 5 3 3 2 2 4 5 4 3 2
27 27 27 27 27 27 27 26 27 27 28 28 28 28 27 26 26 27 27 27 27 26 26 27 27 27 27 27 27 27 28 28 29 29 28 27 27 26 24 24 24 23 24 24 24 25 27 28 27 23 20 18 18 15 10 8 7 5 5 5 5 5 5 5 2 1 1 2 4 6 3 4 6 8
Wind_Direction
337 337 338 337 334 335 336 336 335 334 331 329 328 328 328 321 314 312 310 305 303 309 310 310 311 313 312 310 309 305 300 297 297 297 295 294 294 293 292 291 290 286 280 275 272 272 270 267 265 266 267 268 268 267 266 266 267 268 268 267 265 263 263 263 262 261 261 262 263 265 268 269 267 270
334 334 336 337 335 335 336 335 335 335 333 330 326 324 323 319 310 304 307 302 297 309 316 315 319 323 320 317 315 313 310 306 303 300 297 296 296 296 294 290 287 284 281 278 276 274 270 266 267 268 268 267 267 266 266 267 267 267 266 264 263 264 264 264 264 263 262 262 263 264 266 265 264 268
331 332 333 334 334 334 335 335 335 334 333 330 325 324 325 326 322 317 312 300 298 313 320 313 313 320 319 314 315 315 316 317 314 308 304 301 299 299 297 294 290 286 283 281 277 272 268 267 268 269 269 267 267 266 266 267 268 268 267 265 265 265 265 265 264 264 263 263 263 263 262 262 264 268
330 330 331 332 333 333 332 333 333 333 332 330 327 331 333 333 331 325 318 306 300 307 312 308 309 316 314 309 310 314 316 319 321 318 313 309 306 302 299 297 294 291 289 285 278 271 270 273 272 270 269 269 268 266 266 267 267 267 268 267 267 266 265 264 264 263 264 264 264 264 262 261 263 266
329 328 329 330 329 329 329 329 330 331 332 330 328 332 332 327 326 323 315 308 302 305 310 311 311 317 319 311 310 315 316 315 316 316 313 311 310 308 305 302 298 295 293 289 283 277 276 277 274 271 271 271 268 266 268 270 268 267 268 268 269 267 264 264 264 264 264 264 265 265 264 263 262 263
328 326 326 326 327 328 327 326 328 329 329 329 326 326 325 322 323 326 319 313 310 308 312 316 314 317 321 315 312 317 317 312 311 310 309 308 309 309 308 306 302 298 294 290 287 284 282 281 278 275 273 271 268 268 272 274 271 270 269 270 273 271 267 265 266 266 266 266 265 265 263 262 261 260
326 324 323 323 324 325 324 323 325 327 326 324 322 320 321 323 325 329 326 320 316 310 309 312 315 315 316 315 314 317 317 314 312 311 308 306 307 307 307 305 301 298 296 293 290 288 286 283 280 276 272 269 269 272 276 275 271 270 269 270 274 274 270 269 270 270 270 269 267 265 264 262 260 259
323 322 321 322 323 323 321 318 318 322 324 320 317 316 320 327 326 324 323 319 315 310 307 308 312 314 313 313 317 319 320 319 316 313 310 308 307 305 304 303 301 300 299 297 293 289 287 284 281 278 276 276 276 277 277 274 269 267 268 271 274 273 271 272 272 273 273 272 270 268 266 264 262 261
322 321 320 319 320 319 315 310 310 316 319 315 312 316 324 328 325 320 320 319 315 310 307 307 309 311 311 312 316 320 322 321 318 316 314 313 311 309 307 305 304 304 303 301 297 293 290 286 284 282 281 281 282 281 277 272 267 265 266 270 270 269 269 270 272 273 274 273 272 272 271 268 266 265
319 317 316 315 317 318 315 312 315 318 315 310 310 320 326 324 320 318 318 317 314 308 303 303 306 308 310 311 312 316 319 317 315 316 318 317 315 313 312 309 306 306 305 302 300 297 294 290 287 285 285 284 282 280 277 273 269 267 267 267 265 264 266 266 268 271 272 271 271 273 274 273 271 270
314 314 318 321 324 326 325 325 326 325 321 317 317 321 322 319 317 316 315 314 310 305 301 300 302 305 308 308 308 310 314 312 309 312 317 317 314 313 313 311 307 306 305 302 300 298 296 294 291 288 286 284 282 280 278 275 271 268 267 265 263 262 262 261 263 267 268 268 269 272 274 275 275 275
313 320 324 326 326 326 326 325 323 324 325 324 322 321 319 318 315 313 311 309 308 305 301 300 302 304 306 307 307 309 313 312 308 311 313 311 309 309 309 308 306 305 305 305 303 300 297 296 295 293 289 284 281 280 279 276 273 270 267 265 263 260 259 258 260 262 263 264 267 270 272 274 275 274
320 324 322 322 322 322 321 320 318 318 320 320 319 319 318 316 314 310 308 307 307 306 305 303 303 303 302 305 308 311 313 311 309 311 310 305 304 306 306 304 302 302 304 306 304 301 299 298 297 295 292 288 283 280 278 276 274 271 268 264 261 258 259 260 260 258 258 261 264 266 270 274 273 272
321 322 321 320 320 319 318 317 316 317 318 318 317 316 316 315 312 309 306 305 305 306 306 304 303 302 301 304 308 306 306 306 305 305 305 304 307 309 307 303 301 301 304 305 302 299 298 299 299 297 294 290 287 283 279 276 274 271 267 263 260 258 258 257 257 256 255 256 258 262 268 271 271 270
319 322 322 321 319 318 317 317 317 319 320 319 318 317 316 314 311 308 306 306 306 306 304 301 300 298 298 301 304 302 302 304 305 305 304 303 305 305 303 301 301 303 307 309 305 299 296 296 296 295 293 290 290 288 284 280 277 271 265 260 257 255 253 253 253 253 253 255 258 261 263 265 267 269
321 324 323 321 320 318 320 320 320 321 321 321 320 319 318 315 312 309 307 306 307 306 303 300 297 295 297 301 304 304 306 307 307 305 302 297 294 292 292 294 295 299 306 309 305 298 295 294 293 290 288 287 288 289 287 284 280 274 268 262 259 258 258 258 258 259 260 262 263 262 258 257 261 265
323 325 323 321 320 320 323 323 323 323 323 323 322 320 319 317 313 310 306 304 303 302 300 297 294 295 298 300 300 302 305 308 307 305 301 297 294 292 291 291 292 296 301 302 298 292 290 290 289 286 285 285 284 285 285 284 282 279 274 270 269 269 268 269 268 268 268 268 265 263 260 258 259 262
324 324 322 319 318 320 322 322 322 323 323 322 321 320 319 316 313 310 307 305 303 301 298 295 294 295 296 296 299 302 304 303 302 300 298 296 294 291 290 290 290 291 292 292 289 284 283 284 282 278 279 281 281 281 280 279 277 276 275 274 274 274 274 274 274 273 272 270 267 264 261 260 258 258
323 321 319 316 315 317 318 318 320 321 321 321 320 318 317 315 312 310 307 305 304 301 298 295 294 296 297 299 301 301 300 298 295 293 293 293 293 291 289 288 287 287 287 285 280 273 277 279 277 274 275 277 278 278 277 275 273 272 272 273 273 274 275 275 274 273 269 266 262 259 258 258 258 257
321 318 316 315 314 315 315 317 318 319 320 320 318 317 317 316 313 310 308 306 303 300 299 298 298 299 300 301 300 300 299 299 299 299 299 297 296 292 288 287 285 284 285 283 277 272 275 276 274 273 273 272 273 274 273 272 272 272 272 272 273 274 274 273 270 266 261 258 256 256 257 256 256 255
318 315 314 314 313 314 315 316 318 320 320 320 319 320 320 317 314 311 310 308 306 305 304 302 301 300 299 299 299 299 298 297 299 301 299 297 295 291 288 289 286 283 283 282 279 276 277 278 278 278 275 270 268 269 269 270 271 272 271 272 273 274 272 268 263 257 254 252 252 250 249 247 247 248
316 314 312 312 312 313 315 316 318 319 321 324 328 327 322 318 314 314 314 315 315 312 309 305 303 302 301 300 300 299 297 296 295 293 289 287 287 283 277 278 282 281 279 278 277 271 269 274 275 277 278 272 265 264 266 268 269 270 271 272 273 271 266 259 254 250 246 242 240 239 238 241 245 248
315 313 312 312 313 314 315 316 317 318 323 331 334 328 323 318 315 315 318 320 319 316 311 309 308 307 306 306 305 302 300 299 298 294 289 287 286 285 284 286 287 283 280 284 282 272 268 273 273 274 276 271 264 266 267 268 270 271 271 271 268 260 252 247 243 238 233 231 233 236 240 244 249 254
313 313 312 312 313 315 315 314 315 317 325 333 333 328 323 317 315 318 320 319 318 314 310 309 309 309 311 310 307 306 306 308 310 311 309 307 306 306 304 301 299 293 293 297 295 286 279 279 277 277 277 273 270 272 270 267 265 263 260 261 257 248 243 243 238 234 235 239 244 247 250 253 256 260
310 312 312 312 313 315 313 312 314 319 328 334 332 325 319 315 317 321 322 319 317 313 309 309 310 311 313 312 311 314 317 318 316 315 314 314 313 310 306 302 297 289 291 297 299 295 288 280 273 271 271 270 272 275 273 266 257 250 246 246 248 250 249 244 241 243 247 250 254 257 260 262 262 262
309 310 310 310 311 312 313 315 318 322 328 331 328 321 318 319 322 324 322 319 317 314 311 311 311 313 316 316 317 321 321 318 316 314 311 309 308 306 302 299 296 294 295 298 299 297 293 286 280 273 267 266 269 269 270 267 261 257 253 246 241 241 240 237 237 243 250 257 265 269 268 267 264 261
309 309 307 307 309 313 320 326 325 324 327 329 325 320 321 324 326 327 324 321 318 315 314 313 312 315 320 320 319 321 320 318 317 314 309 306 306 306 305 302 299 297 296 296 295 293 290 287 285 280 275 275 276 268 264 269 268 257 242 234 230 225 225 229 236 248 261 269 272 272 268 265 265 265
307 306 306 308 312 317 323 327 326 324 326 328 325 323 325 328 330 330 327 323 320 315 314 315 315 316 320 321 319 320 319 318 316 312 308 308 309 309 307 305 301 299 297 295 293 291 289 286 284 281 277 274 274 272 267 273 276 262 236 226 222 217 221 231 241 249 255 257 257 262 267 269 269 268
306 306 307 310 314 317 320 324 325 324 324 326 326 325 328 330 330 330 326 323 319 315 315 316 315 315 318 318 318 320 319 318 316 313 311 312 313 313 312 309 304 301 301 300 295 293 293 291 288 284 278 271 267 264 262 266 271 265 247 231 228 230 231 231 231 232 234 239 251 261 267 270 270 269
308 307 310 314 318 320 322 325 325 323 324 327 327 327 329 330 329 328 326 322 318 315 315 314 312 313 315 316 317 322 322 320 318 317 316 316 316 318 317 313 309 307 308 307 303 300 301 301 299 293 282 273 267 262 259 259 262 260 251 240 235 237 232 222 218 225 233 244 257 263 267 271 273 272
309 311 318 321 321 321 322 321 321 322 326 329 329 329 330 330 328 326 324 319 315 313 312 310 309 310 313 315 320 324 324 321 319 319 318 316 316 318 317 312 308 310 312 313 310 308 310 314 317 312 297 282 271 265 263 263 263 267 258 236 221 214 212 213 215 223 235 250 263 268 270 273 274 272
318 324 324 322 321 321 322 323 325 328 329 329 329 328 329 328 327 327 325 320 318 317 315 313 312 313 314 317 323 325 324 322 321 320 319 317 315 316 316 311 309 312 315 317 318 318 318 319 322 323 316 304 291 281 279 278 275 275 266 230 215 215 219 220 224 232 243 257 267 270 271 272 271 270
329 328 325 324 326 327 328 329 329 329 328 327 326 326 327 326 326 327 326 323 322 322 319 316 314 314 315 317 322 325 324 322 322 322 321 319 317 316 313 309 309 313 315 317 320 322 322 323 323 323 321 317 307 292 280 275 275 271 259 231 219 221 227 232 239 244 249 256 262 267 271 271 268 265
330 328 328 329 330 329 327 325 325 325 325 324 322 323 323 323 323 324 323 322 322 321 319 316 313 312 314 317 320 324 324 322 322 322 322 320 318 316 313 309 309 312 313 316 319 321 322 324 325 324 322 322 318 302 279 263 266 270 253 227 221 225 230 236 242 246 248 251 255 261 267 268 267 266
330 330 330 327 325 324 322 320 321 322 322 321 320 320 320 320 321 321 320 321 322 319 317 315 312 312 315 315 316 322 324 322 320 320 322 321 317 315 313 308 308 312 315 315 316 319 321 322 323 324 324 324 323 313 290 267 263 267 254 229 227 233 237 238 244 252 253 249 248 250 260 268 270 269
332 330 326 322 321 320 319 317 318 320 320 320 319 318 317 317 318 318 318 319 319 318 316 314 312 314 315 312 313 321 324 322 319 319 320 319 317 315 312 309 309 311 312 312 313 316 318 318 320 322 323 323 320 314 302 280 269 271 265 245 235 236 246 255 263 265 262 254 248 244 244 258 267 269
329 326 322 318 318 317 316 316 317 317 317 318 318 317 315 314 314 316 317 318 318 317 315 312 312 315 314 310 313 322 324 321 319 318 317 316 316 313 310 309 310 310 309 310 313 315 315 315 317 319 318 317 315 303 300 310 314 312 308 291 277 278 285 291 290 282 274 263 252 246 243 251 263 269
323 320 318 316 315 316 316 316 316 316 316 318 318 316 314 313 313 315 317 318 319 318 316 314 314 315 313 311 317 325 324 321 318 316 315 316 315 312 310 309 308 308 308 308 311 314 314 313 313 314 311 311 310 302 305 324 321 311 309 313 311 309 306 294 287 288 286 276 260 251 248 252 262 272
320 317 314 313 313 314 314 315 315 315 315 317 317 316 314 314 314 315 317 319 319 318 317 315 316 314 311 312 321 325 323 319 316 314 314 315 314 311 310 308 307 308 309 308 309 312 314 313 311 310 305 297 291 292 292 291 293 292 289 284 283 288 292 292 287 287 289 285 274 262 257 259 265 272
318 315 313 312 313 313 313 314 314 314 314 316 316 315 314 313 313 314 316 317 318 318 317 316 316 314 310 313 324 326 322 318 316 313 313 314 314 313 311 309 309 310 309 306 307 310 311 312 311 309 304 297 293 291 287 281 280 284 286 283 274 262 262 283 298 291 287 286 280 269 265 266 265 261
315 313 312 312 312 313 313 314 314 314 314 315 316 315 314 313 312 312 313 314 315 316 316 317 318 315 311 316 324 324 319 316 316 315 314 314 313 313 313 311 308 307 306 304 304 305 309 311 311 309 306 301 297 292 285 277 274 278 285 290 276 241 237 254 284 294 294 291 278 267 266 266 265 264
311 310 311 312 312 312 312 313 314 314 314 315 315 315 314 313 311 311 312 314 315 316 316 318 318 314 312 317 322 321 317 315 315 314 314 313 312 312 312 310 307 305 304 303 302 305 310 313 313 312 310 304 295 285 271 270 278 281 285 289 273 241 236 239 236 258 310 305 277 267 266 260 260 270
311 310 310 311 311 311 311 313 313 313 313 314 314 314 314 312 312 312 313 315 316 317 317 317 318 315 314 316 318 317 316 316 315 314 314 314 312 310 309 309 307 305 304 305 308 310 312 314 314 314 312 304 293 280 267 275 280 277 276 278 270 256 251 245 232 232 272 286 270 275 271 257 247 230
311 311 310 310 311 311 311 312 313 313 312 313 313 313 312 310 309 311 312 314 315 316 316 317 317 316 315 316 317 317 316 317 316 315 313 313 312 310 309 308 307 306 308 311 312 312 314 315 315 313 310 303 296 287 276 280 284 271 263 269 272 266 261 255 245 246 255 244 274 298 278 248 222 154
311 311 311 310 310 310 311 312 312 312 312 312 312 311 310 309 309 310 311 313 315 315 315 316 316 316 316 317 316 316 317 317 317 315 313 312 311 311 310 308 307 307 312 314 313 312 314 316 315 313 310 306 303 295 284 287 300 290 272 279 290 282 270 259 246 314 354 36 46 37 51 120 117 104